Location: Boiro
(42.6475°N, 8.8834°W)
Time: 08:58:29
(UTC+01:00)

SR - Pass Details

Date: 01 December 2021
Orbit: 583 x 872 km, 66.7° (Epoch: 16 January)

Event Time Altitude Azimuth Distance (km) Brightness Sun altitude
Rises 11:42:40 0° 313° (NW) 2,837 ? 21.3°
Reaches altitude 10° 11:45:26 10° 294° (WNW) 1,958 ? 21.5°
Maximum altitude 11:48:25 18° 251° (WSW) 1,527 ? 21.8°
Drops below altitude 10° 11:51:30 10° 208° (SSW) 2,035 ? 22.0°
Sets 11:54:28 0° 190° (S) 2,995 ? 22.2°
